[[{"header":{"parameterUnit":"m.s-1","parameterCategory":1,"la1":30.2991,"la2":30.254,"lo1":-89.0895,"lo2":-89.0444,"dy":0.0017,"dx":0.0017,"nx":28,"ny":28,"refTime":"2024-07-22T09:00:00:Z","depth":0,"parameterNumber":2,"parameterNumberName":"U-component_of_WINDS"},"data":[0,0,0,0,0,0,0,0,0,0,0,0,0,0,0,0,0,0,0,0,0,0,0,0,0,0,0,0,0,0,0,0,0,0,0,0,0,0,0,0,0,0,0,0,0,0,0,0,0,0,0,0,0,0,0,0,0,0,1.9517,1.9516,0,1.9417,1.9416,1.9415,1.9291,1.9289,1.9287,1.9286,1.9185,1.9184,1.9183,0,0,0,0,0,0,0,0,0,0,0,0,0,1.9601,1.96,1.9517,1.9516,1.9515,1.9417,1.9416,1.9414,1.9292,1.9289,1.9287,1.9285,1.9185,1.9184,1.9183,0,0,0,0,0,0,0,0,0,0,0,0,0,1.954,1.96,1.9517,1.9441,1.9434,1.9417,1.9416,1.9414,1.9292,1.9289,1.9286,1.9284,1.9186,1.9184,1.9183,1.9234,0,0,1.9179,1.9179,0,0,0,0,0,0,0,0,1.9543,1.9537,1.9454,1.9447,1.9438,1.9364,1.9408,1.9354,1.9293,1.9346,1.9286,1.9282,1.9247,1.924,1.9228,1.9229,1.9225,1.9179,1.9178,1.9178,1.9177,0,0,0,0,0,0,0,1.9548,1.954,1.9477,1.9453,1.9443,1.9412,1.94,1.9398,1.9314,1.9341,1.9332,1.9322,1.9242,1.923,1.9225,1.9223,1.9179,1.9178,1.9177,1.9177,1.9256,1.9259,0,0,0,0,0,0,1.9563,1.9545,1.9481,1.9474,1.9484,1.9413,1.94,1.939,1.9314,1.9299,1.9324,1.9316,1.9233,1.9227,1.9221,1.9271,1.9178,1.9177,1.9176,1.9253,1.9257,1.926,0,0,0,0,0,0,1.9565,1.9559,1.9485,1.9507,1.9495,1.9415,1.9405,1.939,1.9377,1.9301,1.9286,1.9327,1.9231,1.9223,1.923,1.9266,1.9176,1.9175,1.925,1.9254,1.9258,1.9376,0,0,0,0,0,0,1.9568,1.956,1.9579,1.9508,1.9494,1.9496,1.9408,1.939,1.9375,1.9364,1.9299,1.9286,1.9228,1.9233,1.9229,1.9263,1.9174,1.9246,1.9252,1.9257,1.9368,1.9384,1.9397,0,0,0,0,0,1.9572,1.9617,1.958,1.9573,1.9516,1.9499,1.9491,1.9422,1.9379,1.9396,1.9347,1.9288,1.9264,1.9235,1.9229,1.9264,1.9244,1.925,1.9257,1.9362,1.9381,1.9396,0,0,0,0,0,0,1.9695,1.9607,1.9565,1.9589,1.9552,1.9478,1.9498,1.9445,1.942,1.9411,1.9328,1.9314,1.9331,1.9298,1.9268,1.9306,1.9245,1.9251,1.9327,1.9344,1.9358,1.9364,1.9173,0,0,0,0,0,1.9725,1.9718,1.9641,1.967,1.9653,1.9579,1.9569,1.9519,1.9478,1.9462,1.9413,1.9376,1.9359,1.935,1.9331,1.9364,1.9346,1.9384,1.9399,1.9411,1.9416,1.9427,1.9442,1.9281,1.9281,1.9281,0,0,1.9787,1.9737,1.9738,1.9693,1.9659,1.9653,1.9567,1.9565,1.9559,1.9462,1.9465,1.9428,1.9381,1.94,1.9406,1.9373,1.9456,1.9419,1.9429,1.9427,1.9435,1.945,1.9464,1.9286,1.9285,1.9284,0,0,1.9895,1.9859,1.9876,1.9843,1.9792,1.9742,1.9747,1.968,1.9651,1.9653,1.9578,1.9571,1.9545,1.9513,1.9493,1.9588,1.9532,1.9584,1.9658,1.9669,1.9682,1.9692,1.9723,1.9735,1.959,1.9591,1.9591,0,1.9978,1.9966,1.9892,1.9894,1.9875,1.9786,1.9802,1.9774,1.972,1.9708,1.9673,1.9636,1.9598,1.9606,1.9629,1.9618,1.9618,1.959,1.9686,1.9696,1.9705,1.9733,1.9745,1.9597,1.9596,1.9596,1.9595,0,2.0068,2.0061,2.0082,2.0029,2.0013,2.0023,1.995,1.9943,1.9894,1.9848,1.9849,1.9801,1.9768,1.9767,1.9721,1.9769,1.9749,1.9702,1.9637,1.9728,1.9752,1.9763,1.9606,1.9604,1.9602,1.96,0,0,2.025,2.0157,2.0165,2.0139,2.0075,2.0068,2.0073,2.004,2.0034,2.0,1.9999,1.9979,1.9932,1.991,1.986,1.9871,1.9944,1.982,1.9818,1.9842,1.9989,2.0023,2.0037,1.9907,1.9909,1.991,1.9992,0,2.0344,2.0346,2.0279,2.0299,2.029,2.0205,2.0208,2.017,2.0126,2.0112,2.0064,2.0049,1.9992,1.9977,1.9984,1.9934,1.9972,1.9927,1.9904,1.9904,1.9916,2.005,2.0087,2.0166,2.0001,2.0003,2.0004,0,2.0454,2.0424,2.0443,2.0375,2.0369,2.0373,2.0336,2.0325,2.0278,2.0245,2.022,2.0162,2.016,2.0101,2.0096,2.0068,2.0054,2.0028,2.0029,2.0022,1.9958,2.0044,2.019,2.0201,2.0019,2.0018,2.0017,0,2.058,2.0545,2.055,2.0531,2.0454,2.0459,2.0427,2.0377,2.0361,2.0329,2.0317,2.0287,2.0269,2.0246,2.018,2.0144,2.0182,2.0118,2.0152,2.0154,2.0162,2.0162,2.0305,2.016,2.016,2.0159,2.0159,0,2.069,2.0704,2.0605,2.0609,2.0621,2.0544,2.0559,2.0519,2.0475,2.0468,2.0394,2.0389,2.0304,2.0289,2.0238,2.0239,2.0233,2.0205,2.0191,2.021,2.0213,2.0198,2.0189,2.0162,2.0162,2.0161,2.0161,0,2.0832,2.0767,2.0767,2.0693,2.0675,2.0687,2.0624,2.0623,2.0576,2.0567,2.0561,2.0486,2.0464,2.0396,2.0359,2.0324,2.0339,2.0315,2.0355,2.0345,2.0382,2.0378,2.0518,2.0531,2.0381,2.0382,2.0384,0,2.0904,2.0913,2.084,2.0829,2.08,2.0786,2.0768,2.0693,2.0678,2.0624,2.0629,2.0601,2.0574,2.0543,2.0485,2.0454,2.0426,2.0477,2.0421,2.0439,2.0422,2.0421,2.042,2.0489,2.0491,2.0492,2.0494,0,2.1039,2.1006,2.0983,2.0949,2.093,2.09,2.0866,2.0862,2.0777,2.0764,2.074,2.072,2.0679,2.0651,2.0611,2.0577,2.0521,2.0512,2.0517,2.0536,2.0557,2.0542,2.0384,2.0509,2.0507,2.0506,2.0505,2.0505,2.1145,2.1147,2.1096,2.1073,2.1039,2.1008,2.1002,2.0954,2.0932,2.0893,2.0851,2.0831,2.0782,2.0722,2.0692,2.0674,2.0644,2.0654,2.0655,2.0658,2.0665,2.0563,2.0668,2.0667,2.0666,2.0666,2.0666,0,2.1272,2.1235,2.1215,2.1168,2.1149,2.1099,2.1057,2.1045,2.1028,2.0987,2.0962,2.0934,2.0906,2.0845,2.0811,2.0809,2.0781,2.0802,2.08,2.0792,2.0696,2.0693,2.0824,2.0824,2.0824,2.0824,2.0824,2.0824,2.1336,2.1336,2.1297,2.1279,2.1241,2.1221,2.1201,2.1172,2.1138,2.1109,2.1086,2.1046,2.0996,2.0958,2.0929,2.0912,2.0901,2.093,2.0904,2.0814,2.0799,2.0785,2.0781,2.0929,2.0929,2.1,2.1001,2.1001]},{"header":{"parameterUnit":"m.s-1","parameterCategory":1,"la1":30.2991,"la2":30.254,"lo1":-89.0895,"lo2":-89.0444,"dy":0.0017,"dx":0.0017,"nx":28,"ny":28,"refTime":"2024-07-22T09:00:00:Z","depth":0,"parameterNumber":3,"parameterNumberName":"V-component_of_WINDS"},"data":[0,0,0,0,0,0,0,0,0,0,0,0,0,0,0,0,0,0,0,0,0,0,0,0,0,0,0,0,0,0,0,0,0,0,0,0,0,0,0,0,0,0,0,0,0,0,0,0,0,0,0,0,0,0,0,0,0,0,2.1293,2.1296,0,2.1548,2.1551,2.1554,2.1607,2.1605,2.1603,2.1601,2.1861,2.187,2.1878,0,0,0,0,0,0,0,0,0,0,0,0,0,2.0851,2.0859,2.1293,2.1296,2.13,2.1547,2.1551,2.1554,2.1607,2.1605,2.1602,2.16,2.1858,2.1869,2.1879,0,0,0,0,0,0,0,0,0,0,0,0,0,2.1068,2.0861,2.1293,2.1356,2.1364,2.1547,2.1551,2.1555,2.1608,2.1605,2.1602,2.1599,2.1855,2.1868,2.188,2.2018,0,0,2.192,2.1926,0,0,0,0,0,0,0,0,2.1056,2.1084,2.1343,2.1352,2.1361,2.1543,2.149,2.171,2.1608,2.1515,2.1601,2.1598,2.1757,2.1778,2.1832,2.203,2.2041,2.1921,2.1929,2.1935,2.1939,0,0,0,0,0,0,0,2.1041,2.1074,2.1394,2.1347,2.1358,2.1371,2.1398,2.1532,2.1649,2.1523,2.1527,2.1557,2.1762,2.182,2.1839,2.2045,2.1921,2.1933,2.1941,2.1946,2.2367,2.237,0,0,0,0,0,0,2.1015,2.1061,2.1386,2.1402,2.1198,2.1381,2.1412,2.1487,2.1648,2.167,2.1559,2.1558,2.1799,2.1824,2.1848,2.2019,2.1935,2.1947,2.1955,2.2363,2.2367,2.2371,0,0,0,0,0,0,2.1005,2.1043,2.1376,2.1232,2.1276,2.1392,2.1476,2.1494,2.1552,2.1675,2.1696,2.1597,2.1797,2.183,2.1975,2.2028,2.1953,2.1965,2.2359,2.2365,2.2369,2.2361,0,0,0,0,0,0,2.0992,2.1039,2.1093,2.1233,2.1283,2.1499,2.1479,2.1501,2.1574,2.1576,2.1716,2.1737,2.1798,2.1955,2.1988,2.2045,2.1975,2.2355,2.2362,2.2368,2.2357,2.2365,2.2372,0,0,0,0,0,2.0976,2.1081,2.1096,2.1135,2.1353,2.1502,2.153,2.1599,2.1578,2.1633,2.1712,2.1732,2.2017,2.197,2.2007,2.2069,2.2352,2.236,2.2367,2.2353,2.2363,2.2372,0,0,0,0,0,0,2.0945,2.1101,2.1119,2.1272,2.1373,2.151,2.1582,2.1607,2.1716,2.1713,2.1793,2.1824,2.1964,2.2031,2.1975,2.2209,2.2184,2.2199,2.216,2.2171,2.2178,2.2159,2.1986,0,0,0,0,0,2.0956,2.1064,2.1194,2.1317,2.1367,2.1465,2.1533,2.1576,2.1684,2.1727,2.1817,2.192,2.2033,2.2106,2.2217,2.2367,2.2397,2.2427,2.2435,2.244,2.2452,2.2535,2.2549,2.2396,2.2396,2.2396,0,0,2.098,2.1078,2.1142,2.1313,2.1397,2.1506,2.1501,2.1617,2.1699,2.1745,2.1887,2.1956,2.2077,2.2224,2.2294,2.2285,2.2501,2.245,2.2453,2.2463,2.2544,2.2558,2.2571,2.2401,2.24,2.2399,0,0,2.1079,2.1165,2.1276,2.1359,2.1485,2.155,2.1576,2.1709,2.1757,2.1901,2.1937,2.2035,2.2228,2.2312,2.238,2.2508,2.253,2.2542,2.2581,2.266,2.2672,2.2683,2.2728,2.2743,2.2554,2.2554,2.2554,0,2.1093,2.1259,2.133,2.1444,2.1517,2.1564,2.1676,2.1753,2.1909,2.1958,2.1945,2.2187,2.2272,2.2439,2.247,2.2524,2.2556,2.2526,2.2665,2.2677,2.2688,2.2731,2.2748,2.2554,2.2554,2.2554,2.2554,0,2.1269,2.1383,2.1458,2.1606,2.1688,2.1801,2.1887,2.1962,2.1998,2.2064,2.2208,2.2311,2.2443,2.2486,2.2523,2.2658,2.2648,2.2649,2.2625,2.2702,2.2744,2.2761,2.2555,2.2555,2.2555,2.2555,0,0,2.1356,2.1541,2.1567,2.1634,2.1775,2.1865,2.1979,2.2107,2.2169,2.2274,2.2371,2.2532,2.2534,2.261,2.2657,2.2727,2.282,2.272,2.2724,2.2733,2.2973,2.297,2.2988,2.2835,2.2839,2.2842,2.2962,0,2.1472,2.1676,2.1742,2.1913,2.2018,2.2063,2.2162,2.2259,2.2323,2.2421,2.2492,2.2604,2.2598,2.2645,2.2716,2.2793,2.2869,2.2786,2.2925,2.2929,2.2892,2.3011,2.3009,2.3118,2.2979,2.2982,2.2984,0,2.1634,2.174,2.1921,2.2047,2.2094,2.2182,2.2304,2.2398,2.2508,2.2549,2.2634,2.2675,2.2794,2.2763,2.2928,2.287,2.293,2.2977,2.2983,2.2998,2.2961,2.3027,2.3155,2.317,2.3011,2.3009,2.3007,0,2.1677,2.1867,2.1999,2.2055,2.2206,2.2266,2.2332,2.2439,2.2511,2.2618,2.2665,2.2784,2.2849,2.2939,2.301,2.2981,2.3168,2.3144,2.3205,2.3203,2.3242,2.3239,2.3379,2.3283,2.3282,2.3282,2.3282,0,2.1799,2.1907,2.202,2.2101,2.2223,2.2298,2.2416,2.2484,2.2579,2.2674,2.272,2.2807,2.2896,2.2995,2.3051,2.3178,2.3207,2.3243,2.3257,2.3239,2.3234,2.3279,2.3273,2.3286,2.3285,2.3285,2.3284,0,2.1868,2.1948,2.2095,2.2225,2.226,2.2344,2.2456,2.2536,2.2601,2.2719,2.2752,2.2854,2.2972,2.3052,2.3204,2.3242,2.3379,2.3392,2.3342,2.3348,2.3405,2.3398,2.3579,2.3606,2.3491,2.3492,2.3493,0,2.194,2.2024,2.2163,2.2229,2.2295,2.2401,2.2475,2.2551,2.2625,2.2756,2.2819,2.2941,2.3042,2.3229,2.3317,2.3433,2.3448,2.3503,2.3466,2.3444,2.3447,2.3441,2.3449,2.3509,2.351,2.351,2.3511,0,2.2058,2.2093,2.2197,2.2315,2.2401,2.2498,2.2594,2.2646,2.2738,2.2819,2.2941,2.3019,2.3174,2.3293,2.3417,2.3484,2.3513,2.3522,2.3542,2.3524,2.3491,2.3509,2.3357,2.3518,2.3517,2.3516,2.3516,2.3516,2.213,2.2206,2.2315,2.2429,2.251,2.2598,2.2679,2.2754,2.2856,2.2988,2.3026,2.3152,2.3259,2.3428,2.3497,2.3596,2.3591,2.362,2.3627,2.3633,2.3632,2.3476,2.3619,2.3619,2.3619,2.3619,2.3619,0,2.225,2.2321,2.2425,2.2559,2.2648,2.2667,2.2774,2.2847,2.2957,2.3054,2.3152,2.3291,2.3407,2.3503,2.3622,2.3683,2.3699,2.3711,2.3707,2.3722,2.3631,2.3601,2.3696,2.3696,2.3696,2.3696,2.3696,2.3696,2.2322,2.2451,2.2499,2.2668,2.2739,2.2862,2.2922,2.3004,2.3081,2.3233,2.333,2.3391,2.3487,2.3614,2.372,2.3745,2.3786,2.3796,2.3824,2.3737,2.3728,2.372,2.3692,2.3805,2.3805,2.3906,2.3907,2.3908]}]]